Home   Weather   Vilnius   Past weeks
Flag for Lithuania

Past Weather in Vilnius, Lithuania — Yesterday and Last 2 Weeks

Now
45 °F

Clear.


Feels Like: 45 °F
Forecast: 69 / 45 °F
Wind: 2 mph from North

Location: Vilnius Airport

Current Time: Apr 23, 2019 at 5:49:19 am

Latest Report: Apr 23, 2019 at 4:50 am


Visibility: 10 mi

Pressure: 30.39 "Hg

Humidity: 42%

Dew Point: 23 °F

Location of VilniusLocation

Past Weather in Vilnius — Graph

°F

Vilnius Temperature Yesterday

Maximum temperature yesterday: 63 °F (at 2:50 pm)
Minimum temperature yesterday: 43 °F (at 12:20 am)
Average temperature yesterday: 53 °F

High & Low Weather Summary for the Past Weeks

 TemperatureHumidityPressure
High64 °F (Apr 18, 2:20 pm)100% (Apr 21, 3:20 pm)30.51 "Hg (Apr 21, 3:20 pm)
Low25 °F (Apr 12, 2:50 am)16% (Apr 16, 2:20 pm)29.77 "Hg (Apr 8, 12:20 pm)
Average44 °F54%30.23 "Hg
* Reported Apr 8 4:20 am — Apr 23 4:20 am, Vilnius. Weather by CustomWeather, © 2019

Note: Actual official high and low records may vary slightly from our data, if they occured in-between our weather recording intervals... More about our weather records

Advertising

Vilnius Weather History for the Previous 24 Hours

Scroll right to see more
 ConditionsComfort  
Time TempWeatherWind HumidityBarometerVisibility
4:20 am
Tue, Apr 23
45 °FClear.2 mph46%30.39 "Hg10 mi
3:50 am48 °FClear.7 mph37%30.39 "Hg10 mi
3:20 am50 °FClear.7 mph35%30.39 "Hg10 mi
2:50 am50 °FClear.7 mph35%30.39 "Hg10 mi
2:20 am50 °FClear.7 mph37%30.39 "Hg10 mi
1:50 am50 °FClear.6 mph37%30.39 "Hg10 mi
1:20 am50 °FClear.7 mph37%30.39 "Hg10 mi
12:50 am52 °FClear.7 mph32%30.39 "Hg10 mi
12:20 am48 °FClear.5 mph40%30.39 "Hg10 mi
11:50 pm
Mon, Apr 22
50 °FClear.6 mph37%30.39 "Hg10 mi
11:20 pm54 °FClear.6 mph33%30.36 "Hg10 mi
10:50 pm54 °FClear.6 mph33%30.36 "Hg10 mi
10:20 pm52 °FClear.3 mph38%30.36 "Hg10 mi
9:50 pm50 °FClear.2 mph40%30.36 "Hg10 mi
8:50 pm57 °FClear.5 mph29%30.36 "Hg10 mi
8:20 pm59 °FSunny.5 mph27%30.36 "Hg10 mi
7:50 pm59 °FSunny.6 mph27%30.33 "Hg10 mi
7:20 pm61 °FPassing clouds.8 mph27%30.33 "HgN/A
6:50 pm61 °FSunny.8 mph27%30.33 "Hg10 mi
6:20 pm63 °FPassing clouds.8 mph24%30.33 "HgN/A
5:50 pm63 °FSunny.6 mph24%30.33 "Hg10 mi
5:20 pm63 °FPassing clouds.8 mph25%30.33 "HgN/A
4:50 pm63 °FPassing clouds.12 mph24%30.33 "HgN/A
4:20 pm63 °FPassing clouds.12 mph24%30.33 "HgN/A
3:50 pm63 °FSunny.13 mph25%30.33 "Hg10 mi
2:50 pm63 °FPassing clouds.10 mph25%30.36 "HgN/A
2:20 pm61 °FSunny.10 mph27%30.36 "Hg10 mi
1:50 pm61 °FPassing clouds.12 mph25%30.36 "HgN/A
1:20 pm61 °FSunny.13 mph27%30.36 "Hg10 mi
12:50 pm61 °FSunny.14 mph29%30.36 "Hg10 mi
12:20 pm61 °FSunny.16 mph29%30.36 "Hg10 mi
11:50 am61 °FSunny.16 mph31%30.36 "Hg10 mi
11:20 am59 °FPassing clouds.14 mph36%30.36 "HgN/A
10:50 am59 °FSunny.13 mph39%30.36 "Hg10 mi
10:20 am57 °FSunny.10 mph44%30.36 "Hg10 mi
9:50 am55 °FPassing clouds.8 mph51%30.33 "HgN/A
8:50 am52 °FSunny.6 mph62%30.33 "Hg10 mi
8:20 am50 °FSunny.6 mph62%30.33 "Hg10 mi
7:50 am46 °FSunny.7 mph66%30.30 "Hg10 mi
7:20 am45 °FSunny.7 mph71%30.30 "Hg10 mi
6:50 am43 °FSunny.7 mph76%30.27 "Hg10 mi
6:20 am43 °FSunny.6 mph76%30.27 "Hg10 mi
5:50 am43 °FClear.6 mph76%30.27 "Hg10 mi
5:20 am43 °FClear.7 mph76%30.27 "Hg10 mi
5:02 am43 °FClear.8 mph76%30.27 "Hg10 mi
Weather by CustomWeather, © 2019

See weather overview